Regional Weather Roundup
Issued by NWS

Home | Current Version | Previous Version | Graphics & Text | Print | Product List | Glossary On
Versions: 1 2 3 4 5 6 7 8 9 10 11 12 13 14 15 16 17 18 19 20 21 22 23 24 25 26 27 28 29 30 31 32 33 34 35 36 37 38 39 40 41 42 43 44 45 46 47 48 49 50
000
ASUS45 KABQ 210310
RWRNM
WEATHER ROUNDUP FOR NEW MEXICO
NATIONAL WEATHER SERVICE ALBUQUERQUE NM
900 PM MDT SUN APR 20 2014

NOTE: "FAIR" MEANS FEW OR NO CLOUDS BELOW 12,000 FEET AGL WITH NO
       SIGNIFICANT WEATHER OR OBSTRUCTIONS TO VISION.

      THIS PRODUCT IS RELEASED AS TWO VERSIONS.  ONE VERSION NEAR
      THE TOP OF THE HOUR CONTAINING PRELIMINARY DATA FROM ALBUQUERQUE
      AND OTHER STATIONS.  A FINAL VERSION WITH ADDITIONAL DATA IS
      ISSUED ABOUT 10 MINUTES AFTER THE HOUR.

NMZ501-503-504-510>518-210400-
NORTHWEST PLATEAU/NORTHCENTRAL MOUNTAINS

CITY           SKY/WX    TMP DP  RH WIND       PRES   REMARKS
FARMINGTON     CLEAR     63  28  26 W9        30.09R
LOS ALAMOS     PTCLDY    59  30  33 W10       30.18R
SANTA FE       MOCLDY    58  33  39 N6        30.12R
TAOS           CLOUDY    48  39  71 E3        30.25R
ANGEL FIRE     FAIR      47  37  67 CALM      30.27R

$$
NMZ402-403-502-505>509-210400-
WESTCENTRAL MOUNTAINS/SOUTHWEST MOUNTAINS

CITY           SKY/WX    TMP DP  RH WIND       PRES   REMARKS
GALLUP         CLEAR     56  22  26 CALM      30.18R
GRANTS         MOCLDY    59  31  34 W10       30.18S
SILVER CITY    PTCLDY    55  48  76 N7        30.19R

$$
NMZ407-409-411-412-210400-
SOUTHERN DESERTS

CITY           SKY/WX    TMP DP  RH WIND       PRES   REMARKS
LORDSBURG      FAIR      68  37  32 CALM      30.11R
DEMING         PTCLDY    65  39  38 W7        30.10R
LAS CRUCES     PTCLDY    66  35  31 W7        30.12R
HOLLOMAN AFB   PTCLDY    68  41  37 S5        30.07R
ALAMOGORDO     PTCLDY    63  37  39 SE7       30.08R
T OR C         PTCLDY    65  36  34 SW8       30.10R

$$
NMZ519>523-210400-
CENTRAL VALLEYS/CENTRAL HIGHLANDS

CITY           SKY/WX    TMP DP  RH WIND       PRES   REMARKS
ALBUQUERQUE    MOCLDY    70  30  22 SW7       30.09R
DOUBLE EAGLE   PTCLDY    59  21  23 W13       30.12R
MORIARTY ARPT  CLOUDY    58  33  39 SW7       30.14R
CLINES CORNERS CLOUDY    53  42  66 E10       30.17R
BELEN          MOCLDY    61  34  35 SW8       30.09R
SOCORRO        FAIR      65  40  39 S6        30.09R

$$
NMZ524>526-539-540-210400-
SOUTHCENTRAL MOUNTAINS

CITY           SKY/WX    TMP DP  RH WIND       PRES   REMARKS
RUIDOSO        CLEAR     54  37  54 SW13      30.21S

$$
NMZ527>531-210400-
NORTHEAST HIGHLANDS/NORTHEAST PLAINS

CITY           SKY/WX    TMP DP  RH WIND       PRES   REMARKS
LAS VEGAS      PTCLDY    49  43  80 CALM      30.17R
RATON          PTCLDY    51  41  68 N6        30.13R
CLAYTON        PTCLDY    57  38  48 W8        30.05R

$$
NMZ532>537-210400-
EASTCENTRAL PLAINS

CITY           SKY/WX    TMP DP  RH WIND       PRES   REMARKS
TUCUMCARI      PTCLDY    59  40  49 W9        30.02R
CANNON AFB     MOCLDY    60  44  56 NW3       30.05R
CLOVIS AIRPORT   N/A     57  48  72 W8        30.07R

$$
NMZ028-029-538-210400-
SOUTHEAST PLAINS

CITY           SKY/WX    TMP DP  RH WIND       PRES   REMARKS
ROSWELL        CLEAR     70  40  33 VRB3      30.01R
ARTESIA        CLEAR     64  46  52 W8        30.02R
CARLSBAD       CLEAR     64  48  56 SW9       30.01R
HOBBS          CLEAR     63  41  45 W7        30.05R


$$



USA.gov is the U.S. government's official web portal to all federal, state and local government web resources and services.